TimeCDT,TemperatureF,Dew PointF,Humidity,Sea Level PressureIn,VisibilityMPH,Wind Direction,Wind SpeedMPH,Gust SpeedMPH,PrecipitationIn,Events,Conditions,WindDirDegrees,DateUTC
12:53 AM,59.0,46.9,64,30.04,10.0,ESE,4.6,-,N/A,,Clear,120,2014-04-02 05:53:00
1:53 AM,59.0,46.9,64,30.03,10.0,SE,3.5,-,N/A,,Clear,130,2014-04-02 06:53:00
2:53 AM,57.0,46.9,69,30.03,10.0,South,4.6,-,N/A,,Clear,170,2014-04-02 07:53:00
3:53 AM,55.9,48.0,75,30.03,10.0,SSE,4.6,-,N/A,,Clear,160,2014-04-02 08:53:00
4:53 AM,57.0,48.0,72,30.04,10.0,South,4.6,-,N/A,,Clear,180,2014-04-02 09:53:00
5:53 AM,55.9,46.9,72,30.06,10.0,SSE,4.6,-,N/A,,Mostly Cloudy,160,2014-04-02 10:53:00
7:53 AM,57.9,51.1,78,30.10,10.0,SE,4.6,-,N/A,,Mostly Cloudy,130,2014-04-02 12:53:00
8:53 AM,63.0,52.0,67,30.09,10.0,SSE,8.1,-,N/A,,Scattered Clouds,160,2014-04-02 13:53:00
9:53 AM,66.9,55.0,66,30.10,10.0,South,3.5,-,N/A,,Scattered Clouds,170,2014-04-02 14:53:00
10:53 AM,71.1,57.0,61,30.09,10.0,South,6.9,-,N/A,,Mostly Cloudy,180,2014-04-02 15:53:00
11:53 AM,75.0,57.9,55,30.08,10.0,South,6.9,-,N/A,,Mostly Cloudy,180,2014-04-02 16:53:00
12:53 PM,77.0,54.0,45,30.06,10.0,South,12.7,18.4,N/A,,Mostly Cloudy,180,2014-04-02 17:53:00
1:53 PM,79.0,52.0,39,30.03,10.0,SW,15.0,20.7,N/A,,Scattered Clouds,220,2014-04-02 18:53:00
2:53 PM,78.1,55.9,46,30.03,10.0,SW,12.7,17.3,N/A,,Mostly Cloudy,220,2014-04-02 19:53:00
3:53 PM,78.1,55.9,46,30.02,10.0,SW,10.4,-,N/A,,Mostly Cloudy,220,2014-04-02 20:53:00
4:53 PM,75.9,55.9,50,30.01,10.0,SSW,10.4,-,N/A,,Mostly Cloudy,200,2014-04-02 21:53:00
5:53 PM,73.9,55.0,52,30.02,10.0,SSW,9.2,-,N/A,,Mostly Cloudy,200,2014-04-02 22:53:00
6:53 PM,73.0,55.9,55,30.02,10.0,SSW,10.4,-,N/A,,Overcast,200,2014-04-02 23:53:00
7:53 PM,70.0,57.0,63,30.02,10.0,Calm,Calm,-,N/A,,Overcast,0,2014-04-03 00:53:00
8:53 PM,66.9,55.9,68,30.04,10.0,Calm,Calm,-,N/A,,Overcast,0,2014-04-03 01:53:00
9:53 PM,66.9,57.0,70,30.02,10.0,ESE,4.6,-,N/A,,Overcast,110,2014-04-03 02:53:00
10:53 PM,64.9,57.9,78,30.01,10.0,ESE,4.6,-,N/A,,Scattered Clouds,110,2014-04-03 03:53:00
11:53 PM,66.0,57.0,73,30.01,10.0,East,5.8,-,N/A,,Mostly Cloudy,90,2014-04-03 04:53:00